Overview Statistics Trail Chart Weather Telemetry Raw packets
 

This is the latest recevied weather packets stored in our database for station/object EA7URS-13. If no packets are shown the sender has not sent any weather packets the latest 10 day(s).

<< 29 30 31 32 33 34 35 >>
Time Temp. Humidity Pressure Rain* Wind** Luminosity Snow
1788457918 42.78° C 17% 1010 hPa 0 mm - 43 W/m² -
1788457617 42.78° C 17% 1010 hPa 0 mm - 43 W/m² -
1788457316 42.22° C 18% 1009.8 hPa 0 mm - 49 W/m² -
1788457015 42.22° C 18% 1009.8 hPa 0 mm - 49 W/m² -
1788456713 42.78° C 16% 1009.8 hPa 0 mm - 74 W/m² -
1788456412 42.78° C 16% 1009.8 hPa 0 mm - 74 W/m² -
1788456111 42.78° C 17% 1009.8 hPa 0 mm - 87 W/m² -
1788455810 42.78° C 17% 1009.8 hPa 0 mm - 87 W/m² -
1788455509 42.78° C 16% 1009.8 hPa 0 mm - 104 W/m² -
1788455208 42.78° C 16% 1009.8 hPa 0 mm - 104 W/m² -
1788454906 43.33° C 16% 1009.9 hPa 0 mm - 126 W/m² -
1788454606 43.33° C 16% 1009.9 hPa 0 mm - 126 W/m² -
1788454304 42.78° C 17% 1010 hPa 0 mm - 160 W/m² -
1788454003 42.78° C 17% 1010 hPa 0 mm - 160 W/m² -
1788453702 42.78° C 16% 1010.1 hPa 0 mm - 176 W/m² -
1788453410 42.78° C 16% 1010.1 hPa 0 mm - 176 W/m² -
1788453100 42.78° C 17% 1009.9 hPa 0 mm - 202 W/m² -
1788452799 42.78° C 17% 1009.9 hPa 0 mm - 202 W/m² -
1788452498 43.33° C 17% 1009.9 hPa 0 mm - 224 W/m² -
1788452197 43.33° C 17% 1009.9 hPa 0 mm - 224 W/m² -
1788451896 43.89° C 16% 1009.9 hPa 0 mm - 224 W/m² -
1788451595 43.89° C 16% 1009.9 hPa 0 mm - 224 W/m² -
1788451293 42.78° C 16% 1010 hPa 0 mm - 274 W/m² -
1788450992 42.78° C 16% 1010 hPa 0 mm - 274 W/m² -
1788450691 42.22° C 16% 1010.2 hPa 0 mm - 300 W/m² -

* Rain latest hour (hover to see other rain measurements)
** Current wind speed in m/s (hover to see current wind gust speed)